Weather observations for the past three days for
Southern Illinois Airport
Imperial (Metric)
Date Time (cdt) Wind (mph) Vis. (mi.) Weather Sky Cond. Temperature (ºF) Relative Humidity Wind Chill (°F) Heat Index (°F) Pressure Precipitation (in)
Air Dwpt 6 hour altimeter (in) sea level (mb) 1 hr 3 hr 6 hr
Max. Min.
25 02:52 S 6 10.00 Fair CLR 75 68 79% 76 29.9 1012.1
25 01:52 Calm 10.00 Fair CLR 73.9 66.9 79% 29.91 1012.4
25 00:52 S 3 10.00 Fair CLR 75.9 66.9 87.1 75 74% 77 29.92 1012.6
24 23:52 S 3 10.00 Fair CLR 75.9 66.9 74% 77 29.92 1012.7
24 22:52 SE 5 10.00 Fair CLR 77 69.1 77% 79 29.93 1012.9
24 21:52 SE 6 10.00 Fair CLR 79 69.1 72% 82 29.92 1012.5
24 20:52 SE 6 10.00 Fair CLR 80.1 69.1 69% 83 29.91 1012.3
24 19:52 SE 6 10.00 Fair CLR 84 69.1 61% 88 29.91 1012.3
24 18:52 S 9 10.00 Fair CLR 87.1 68 91 87.1 53% 91 29.91 1012.6
24 17:52 S 8 10.00 Fair CLR 89.1 68 50% 93 29.93 1013.1
24 16:52 S 6 10.00 Fair CLR 90 70 52% 95 29.94 1013.5
24 15:52 Vrbl 6 10.00 Fair CLR 90 66 45% 93 29.95 1013.8
24 14:52 S 6 10.00 Fair CLR 89.1 68 50% 93 29.96 1014.1
24 13:52 S 5 10.00 Fair CLR 88 66 48% 90 29.97 1014.4
24 12:52 S 5 10.00 Fair CLR 87.1 64.9 88 70 48% 89 29.98 1015.0
24 11:52 SE 7 10.00 Fair CLR 86 66 51% 88 30 1015.6
24 10:52 SE 8 10.00 Fair CLR 84 66 55% 86 30.01 1015.8
24 09:52 E 6 10.00 Fair CLR 82 66.9 60% 85 30.01 1015.8
24 08:52 E 9 10.00 Fair CLR 79 66 65% 81 30 1015.6
24 07:52 SE 3 10.00 Fair CLR 75.9 68 77% 77 30 1015.5
24 06:52 Calm 10.00 Fair CLR 70 68 70 66 93% 29.98 1014.8
24 05:52 Calm 0.25 Fog CLR 66 64.9 96% 29.96 1014.1
24 04:52 Calm 1.00 Fog/Mist CLR 66 64.9 96% 29.94 1013.5
24 03:52 Calm 10.00 Fair CLR 68 66 93% 29.93 1012.9
24 02:52 Calm 10.00 Fair CLR 68 66 93% 29.92 1012.7
24 01:52 Calm 10.00 Fair CLR 69.1 66.9 93% 29.92 1012.6
24 00:52 Calm 10.00 Fair CLR 70 66.9 91 70 90% 29.92 1012.6
23 23:52 Calm 10.00 Fair CLR 71.1 66.9 87% 29.91 1012.5
23 22:52 Calm 10.00 Fair CLR 73 66.9 81% 29.9 1012.1
23 21:52 Calm 10.00 Fair CLR 73.9 66 76% 29.88 1011.4
23 20:52 Calm 7.00 Fair CLR 78.1 64.9 64% 80 29.86 1010.9
23 19:52 Calm 10.00 Fair CLR 86 63 46% 87 29.86 1010.5
23 18:52 N 8 10.00 Fair CLR 91 61 91.9 88 37% 91 29.85 1010.4
23 17:52 NW 7 10.00 Partly Cloudy SCT060 91 64.9 42% 93 29.85 1010.2
23 16:52 N 8 10.00 Partly Cloudy SCT055 91.9 64 40% 94 29.85 1010.4
23 15:52 NW 9 10.00 Partly Cloudy SCT050 91.9 68 46% 96 29.85 1010.2
23 14:52 NW 13 10.00 Fair CLR 91 68 47% 95 29.86 1010.5
23 13:52 NW 9 G 18 10.00 Partly Cloudy SCT047 90 70 52% 95 29.86 1010.5
23 12:52 NW 10 10.00 Partly Cloudy SCT039 89.1 71.1 91 75.9 55% 95 29.86 1010.6
23 11:52 NW 12 10.00 A Few Clouds FEW033 FEW041 89.1 73 59% 97 29.86 1010.7
23 10:52 NW 12 G 17 10.00 Mostly Cloudy BKN026 BKN040 84 73.9 72% 91 29.86 1010.6
23 09:52 W 7 10.00 Overcast OVC029 81 75 82% 87 29.84 1010.0
23 08:52 SW 9 10.00 Overcast OVC035 80.1 73.9 82% 85 29.84 1010.0
23 07:52 SW 8 10.00 Overcast OVC041 78.1 73.9 87% 81 29.83 1009.7
23 06:52 S 5 9.00 Overcast OVC046 75.9 73 82 75.9 91% 76 29.83 1009.6 0.04 0.07
23 05:52 S 7 6.00 Light Rain Fog/Mist OVC050 77 73 88% 78 29.83 1009.8 0.02
23 04:52 SW 13 10.00 Light Rain BKN075 OVC090 80.1 72 76% 84 29.82 1009.4 0.01
23 03:52 SW 10 G 22 10.00 Overcast BKN075 BKN090 OVC110 82 71.1 69% 86 29.83 1009.5
23 02:52 SW 14 10.00 Fair CLR 82 71.1 69% 86 29.84 1010.0
23 01:52 S 9 10.00 Fair CLR 80.1 70 71% 83 29.87 1010.9
23 00:52 SW 10 10.00 Fair CLR 81 70 88 78.1 69% 84 29.86 1010.6
22 23:52 S 12 10.00 Fair CLR 81 69.1 67% 84 29.87 1011.0
22 22:52 S 8 10.00 Fair CLR 79 70 74% 82 29.89 1011.5
22 21:52 S 7 10.00 Fair CLR 79 70 74% 82 29.89 1011.6
22 20:52 S 8 10.00 Fair CLR 80.1 70 71% 83 29.89 1011.7
22 19:52 S 8 10.00 Fair CLR 86 69.1 57% 90 29.91 1012.2
22 18:52 SW 9 10.00 Fair CLR 88 68 93 88 52% 92 29.91 1012.5
22 17:52 SW 13 10.00 Fair CLR 91 68 47% 95 29.92 1012.7
22 16:52 SW 16 10.00 Fair CLR 91 68 47% 95 29.93 1013.0
22 15:52 SW 17 10.00 Fair CLR 91.9 66.9 44% 95 29.95 1013.7
22 14:52 SW 13 G 21 10.00 A Few Clouds FEW050 FEW060 91 69.1 49% 96 29.97 1014.5
22 13:52 SW 13 G 21 10.00 A Few Clouds FEW047 FEW085 90 71.1 54% 96 29.99 1015.0
22 12:52 S 15 G 22 10.00 A Few Clouds FEW046 FEW055 89.1 70 91 73.9 53% 94 30.01 1015.6
22 11:52 S 15 10.00 Fair CLR 89.1 70 53% 94 30.03 1016.3
22 10:52 SW 13 9.00 Fair CLR 88 69.1 54% 92 30.05 1016.9
22 09:52 S 10 10.00 Fair CLR 86 70 59% 91 30.07 1017.6
22 08:52 S 10 10.00 Fair CLR 84 71.1 65% 89 30.08 1018.1
22 07:52 S 6 10.00 Fair CLR 80.1 71.1 74% 84 30.08 1018.0
22 06:52 Calm 7.00 Fair CLR 73.9 70 73.9 69.1 88% 30.09 1018.3
22 05:52 Calm 4.00 Fog/Mist CLR 70 68 93% 30.09 1018.3
22 04:52 Calm 5.00 Fog/Mist CLR 70 68 93% 30.09 1018.5
22 03:52 Calm 7.00 Fair CLR 70 68 93% 30.1 1018.8
Date Time (cdt) Wind (mph) Vis. (mi.) Weather Sky Cond. Air Dwpt Max. Min. Relative Humidity Wind Chill (°F) Heat Index (°F) altimeter (in) sea level (mb) 1 hr 3 hr 6 hr
6 hour
Temperature (ºF) Pressure Precipitation (in)